User: anonymous
Location: Valdosta
(30.8330°N, 83.2790°W)
Time: 06:00:25
(UTC-04:00)
Language:

Uribyol 2 - Orbit

View from above orbital plane
View from above orbital plane
View from above satellite
View from above satellite

Ground track
Ground track

The orbit data is extracted from the following two-line orbital elements,

1 22828U 93061F   14106.42660268  .00000207  00000-0  96843-4 0  5839
2 22828 098.6435 052.4273 0011094 084.7900 275.4548 14.30285519 40417
Epoch (UTC): 16 April 2014 10:14:18
Eccentricity: 0.0011094
inclination: 98.6435°
perigee height: 783 km
apogee height: 799 km
right ascension of ascending node: 52.4273°
argument of perigee: 84.7900°
revolutions per day: 14.30285519
mean anomaly at epoch: 275.4548°
orbit number at epoch: 4041

The dashed part of the orbit path shows where the satellite is in the earth's shadow,  

DLR